Regional Weather Roundup
Issued by NWS

Home | Current Version | Previous Version | Graphics & Text | Print | Product List | Glossary On
Versions: 1 2 3 4 5 6 7 8 9 10 11 12 13 14 15 16 17 18 19 20 21 22 23 24 25 26 27 28 29 30 31 32 33 34 35 36 37 38 39 40 41 42 43 44 45 46 47 48 49 50
308
ASUS43 KLMK 010410
RWRKY
KENTUCKY REGIONAL WEATHER ROUNDUP
NATIONAL WEATHER SERVICE LOUISVILLE KY
1200 AM EDT SUN MAY 01 2016

NOTE "FAIR" INDICATES FEW OR NO CLOUDS BELOW 12,000 FEET
WITH NO SIGNIFICANT WEATHER AND/OR OBSTRUCTIONS TO VISIBILITY.

KYZ001>023-026-027-061>063-070>075-010500-
WESTERN AND SOUTH CENTRAL KENTUCKY

CITY           SKY/WX    TMP DP  RH WIND       PRES   REMARKS
PADUCAH        PTCLDY    63  60  90 CALM      29.84S
HENDERSON      MOCLDY    66  61  82 S3        29.85S
OWENSBORO      CLOUDY    65  65 100 S5        29.87S
HOPKINSVILLE   PTCLDY    66  66 100 SE5       29.88R
BOWLING GREEN  CLOUDY    67  65  93 E8        29.89F
GLASGOW        LGT RAIN  65  65 100 E5        29.91S
$$

KYZ024-025-028>034-038-045-046-053-010500-
NORTH CENTRAL KENTUCKY

CITY           SKY/WX    TMP DP  RH WIND       PRES   REMARKS
LOUISVILLE/SDF LGT RAIN  66  63  90 SE7       29.89S
LOUISVILLE/LOU LGT RAIN  65  62  90 VRB3      29.90S
FORT KNOX      LGT RAIN  64  63  98 SE9       29.87F
$$

KYZ035>037-039>044-047>052-055>060-089>105-010500-
NORTHEAST KENTUCKY

CITY           SKY/WX    TMP DP  RH WIND       PRES   REMARKS
LEXINGTON      LGT RAIN  63  60  90 S9        29.95S FOG
COVINGTON      LGT RAIN  61  60  97 S10       29.91R
FRANKFORT      LGT RAIN  63  60  90 S7        29.91S
$$

KYZ054-064>069-076>088-106>120-010500-
SOUTHEAST KENTUCKY

CITY           SKY/WX    TMP DP  RH WIND       PRES   REMARKS
JACKSON        RAIN      61  59  93 CALM      30.02S VSB 1
LONDON         CLOUDY    62  60  93 E6        29.95F
SOMERSET       HVY RAIN  61  61 100 CALM      29.96S
MIDDLESBORO    HVY RAIN  61  61 100 CALM      30.00S
MONTICELLO     TSTM      65  63  93 SE7       29.96F
$$





USA.gov is the U.S. government's official web portal to all federal, state and local government web resources and services.